Weather History for Farmington, NM

Change the Weather History Date:

Wednesday, October 9, 2013

  Actual Average Record
Temperature  
Mean Temperature 58 °F -  
Max Temperature 73 °F 70 °F 82 °F (1980)
Min Temperature 42 °F 39 °F 29 °F (1990)
Degree Days  
Heating Degree Days 8    
Growing Degree Days 8 (Base 50)    
Moisture  
Dew Point 26 °F    
Average Humidity 30    
Maximum Humidity 60    
Minimum Humidity 6    
Precipitation  
Precipitation 0.00 in - - ()
Sea Level Pressure  
Sea Level Pressure 29.79 in    
Wind  
Wind Speed 9 mph (ESE)    
Max Wind Speed 17 mph    
Max Gust Speed 31 mph    
Visibility 10 miles    
Events      
Averages and records for this station are not official NWS values.
T = Trace of Precipitation, MM = Missing Value Source: NWS Daily Summary

Daily Weather History Graph

Daily Weather History Graph

Search for Another Location

Airport:

Trip Planner

Search our weather history database for the weather conditions in past years. The results will help you decide how hot, cold, wet, or windy it might be!

Date:

Astronomy

Oct. 09, 2013 Rise Set
Actual Time 7:15 AM MDT 6:44 PM MDT
Civil Twilight 6:49 AM MDT 7:10 PM MDT
Nautical Twilight 6:19 AM MDT 7:40 PM MDT
Astronomical Twilight 5:49 AM MDT 8:10 PM MDT
Moon 12:07 PM MDT (10/9) 10:27 PM MDT (10/9)
Length of Visible Light 12h 20m
Length of Day
11h 28m
Waxing Crescent, 26% of the Moon is Illuminated
Oct 9
Waxing Crescent
Oct 11
First Quarter
Oct 18
Full
Oct 26
Last Quarter
Nov 3
New

Hourly Weather History & Observations

Time (MDT) Temp. Windchill Dew Point Humidity Pressure Visibility Wind Dir Wind Speed Gust Speed Precip Events Conditions
12:53 AM 46.9 °F - 27.0 °F 46% 29.82 in 10.0 mi NE 4.6 mph - N/A   Clear
1:53 AM 45.0 °F 40.1 °F 27.0 °F 49% 29.83 in 10.0 mi NNE 9.2 mph - N/A   Clear
2:53 AM 42.1 °F 37.1 °F 27.0 °F 55% 29.83 in 10.0 mi North 8.1 mph - N/A   Clear
3:53 AM 41.0 °F 39.0 °F 26.1 °F 55% 29.83 in 10.0 mi East 3.5 mph - N/A   Clear
4:53 AM 45.0 °F 39.3 °F 28.9 °F 53% 29.82 in 10.0 mi ENE 11.5 mph - N/A   Clear
5:53 AM 44.1 °F 38.6 °F 30.0 °F 58% 29.83 in 10.0 mi East 10.4 mph - N/A   Clear
6:53 AM 43.0 °F 37.7 °F 30.0 °F 60% 29.85 in 10.0 mi East 9.2 mph - N/A   Clear
7:53 AM 45.0 °F 40.6 °F 28.9 °F 53% 29.86 in 10.0 mi East 8.1 mph - N/A   Clear
8:53 AM 48.0 °F - 28.9 °F 48% 29.88 in 10.0 mi East 9.2 mph - N/A   Clear
9:53 AM 55.9 °F - 32.0 °F 40% 29.87 in 10.0 mi East 8.1 mph - N/A   Clear
10:53 AM 63.0 °F - 30.0 °F 29% 29.87 in 10.0 mi SE 5.8 mph - N/A   Clear
11:53 AM 68.0 °F - 27.0 °F 21% 29.84 in 10.0 mi East 6.9 mph - N/A   Clear
12:53 PM 70.0 °F - 21.0 °F 16% 29.82 in 10.0 mi SSE 12.7 mph 21.9 mph N/A   Clear
1:53 PM 70.0 °F - 19.9 °F 15% 29.79 in 10.0 mi South 13.8 mph 20.7 mph N/A   Partly Cloudy
2:53 PM 73.0 °F - 19.9 °F 14% 29.77 in 10.0 mi SSE 16.1 mph 23.0 mph N/A   Clear
3:53 PM 72.0 °F - 16.0 °F 12% 29.75 in 10.0 mi SSE 9.2 mph - N/A   Clear
4:53 PM 71.1 °F - 17.1 °F 13% 29.73 in 10.0 mi ESE 8.1 mph - N/A   Clear
5:53 PM 71.1 °F - 19.0 °F 14% 29.71 in 10.0 mi South 17.3 mph 24.2 mph N/A   Partly Cloudy
6:53 PM 69.1 °F - 21.0 °F 16% 29.73 in 10.0 mi SSW 12.7 mph - N/A   Partly Cloudy
7:53 PM 66.0 °F - 26.1 °F 22% 29.75 in 10.0 mi South 10.4 mph 19.6 mph N/A   Partly Cloudy
8:53 PM 66.0 °F - 26.1 °F 22% 29.74 in 10.0 mi South 17.3 mph 31.1 mph N/A   Mostly Cloudy
9:53 PM 64.9 °F - 27.0 °F 24% 29.75 in 10.0 mi SSE 8.1 mph - N/A   Overcast
10:53 PM 63.0 °F - 28.0 °F 27% 29.73 in 10.0 mi SE 13.8 mph 19.6 mph N/A   Scattered Clouds
11:53 PM 61.0 °F - 30.9 °F 32% 29.71 in 10.0 mi East 9.2 mph - N/A   Mostly Cloudy